| time (UTC) | temp F | wind direction | speed knots | gust knots | rain 1hr in | rain 24hr in | rain mn in | humidity % | barometer mb |
| 20260904053035 | 75 | 207 | 0.0 | 0.0 | 0.00 | 0.00 | 0.00 | 97 | 1013.9 |
| 20260904051535 | 75 | 207 | 0.0 | 0.0 | 0.00 | 0.00 | 0.00 | 97 | 1013.9 |
| 20260904050029 | 75 | 207 | 0.0 | 0.0 | 0.00 | 0.00 | 0.00 | 97 | 1013.7 |
| 20260904044540 | 75 | 207 | 0.0 | 0.0 | 0.00 | 0.00 | 0.00 | 96 | 1013.7 |
| 20260904043028 | 75 | 207 | 0.0 | 0.0 | 0.00 | 0.00 | 0.00 | 96 | 1013.7 |
| 20260904041535 | 75 | 207 | 0.0 | 0.0 | 0.00 | 0.00 | 0.00 | 96 | 1013.6 |
| 20260904040026 | 76 | 207 | 0.0 | 0.0 | 0.00 | 0.00 | 0.00 | 96 | 1013.6 |
| 20260904034524 | 76 | 207 | 0.0 | 0.0 | 0.00 | 0.00 | 0.00 | 96 | 1013.6 |
| 20260904033027 | 76 | 207 | 0.0 | 0.0 | 0.00 | 0.00 | 0.00 | 95 | 1013.9 |
| 20260904031524 | 76 | 207 | 0.0 | 0.0 | 0.00 | 0.00 | 0.00 | 95 | 1013.7 |
| 20260904030054 | 77 | 207 | 0.0 | 0.0 | 0.00 | 0.00 | 0.00 | 94 | 1013.7 |
| 20260904024552 | 77 | 207 | 0.0 | 0.0 | 0.00 | 0.00 | 0.00 | 94 | 1013.7 |
| 20260904023021 | 77 | 207 | 0.0 | 0.9 | 0.00 | 0.00 | 0.00 | 93 | 1013.8 |
| 20260904021521 | 78 | 207 | 0.0 | 0.9 | 0.00 | 0.00 | 0.00 | 92 | 1013.8 |
| 20260904020028 | 78 | 207 | 0.0 | 0.9 | 0.00 | 0.00 | 0.00 | 92 | 1014.0 |
| 20260904014519 | 78 | 207 | 0.0 | 0.9 | 0.00 | 0.00 | 0.00 | 92 | 1013.6 |
| 20260904013018 | 79 | 207 | 0.9 | 3.5 | 0.00 | 0.00 | 0.00 | 90 | 1013.6 |
| 20260904011518 | 80 | 209 | 0.0 | 0.0 | 0.00 | 0.00 | 0.00 | 89 | 1013.4 |
| 20260904010015 | 80 | 209 | 0.0 | 0.0 | 0.00 | 0.00 | 0.00 | 88 | 1013.2 |
| 20260904004514 | 81 | 209 | 0.0 | 0.0 | 0.00 | 0.00 | 0.00 | 87 | 1013.1 |
| 20260904003013 | 81 | 209 | 0.0 | 0.0 | 0.00 | 0.00 | 0.00 | 86 | 1013.1 |
| 20260904001512 | 82 | 209 | 0.0 | 1.7 | 0.00 | 0.00 | 0.00 | 87 | 1012.8 |
| 20260904000010 | 83 | 209 | 0.0 | 1.7 | 0.00 | 0.00 | 0.00 | 86 | 1012.8 |
| 20260903234512 | 83 | 215 | 3.5 | 4.3 | 0.00 | 0.00 | 0.00 | 84 | 1012.8 |
| 20260903233009 | 86 | 209 | 3.5 | 5.2 | 0.00 | 0.00 | 0.00 | 79 | 1012.6 |
| 20260903231508 | 90 | 51 | 0.0 | 0.0 | 0.00 | 0.00 | 0.00 | 71 | 1012.3 |
| 20260903230004 | 94 | 33 | 0.0 | 3.5 | 0.00 | 0.00 | 0.00 | 65 | 1012.3 |
| 20260903224503 | 94 | 33 | 2.6 | 6.1 | 0.00 | 0.00 | 0.00 | 60 | 1012.1 |
| 20260903223002 | 95 | 34 | 2.6 | 5.2 | 0.00 | 0.00 | 0.00 | 59 | 1012.0 |
| 20260903221503 | 95 | 19 | 1.7 | 4.3 | 0.00 | 0.00 | 0.00 | 61 | 1011.7 |
| 20260903220107 | 95 | 28 | 2.6 | 5.2 | 0.00 | 0.00 | 0.00 | 60 | 1011.7 |
| 20260903214559 | 95 | 348 | 1.7 | 7.0 | 0.00 | 0.00 | 0.00 | 59 | 1011.6 |
| 20260903213058 | 96 | 319 | 4.3 | 7.8 | 0.00 | 0.00 | 0.00 | 58 | 1011.8 |
| 20260903211603 | 96 | 43 | 0.9 | 6.1 | 0.00 | 0.00 | 0.00 | 59 | 1012.1 |
| 20260903210023 | 96 | 349 | 1.7 | 6.1 | 0.00 | 0.00 | 0.00 | 55 | 1012.3 |
| 20260903204521 | 96 | 318 | 0.9 | 7.0 | 0.00 | 0.00 | 0.00 | 55 | 1012.7 |
| 20260903203023 | 96 | 81 | 5.2 | 7.8 | 0.00 | 0.00 | 0.00 | 53 | 1012.9 |